Location: Cisewo
(53.3833°N, 14.9000°E)
Time: 11:46:17
(UTC+00:00)

Cosmos 540 Rocket - Pass Details

Date: 18 April 2021
Orbit: 741 x 753 km, 74.1° (Epoch: 14 May)

Event Time Altitude Azimuth Distance (km) Brightness Sun altitude
Rises 22:14:37 0° 329° (NNW) 3,200 7.9 -24.7°
Reaches altitude 10° 22:17:06 10° 323° (NW) 2,270 6.8 -24.8°
Maximum altitude 22:21:52 40° 255° (WSW) 1,089 4.2 -25.0°
Enters shadow 22:22:05 40° 248° (WSW) 1,092 4.1 -25.0°
